sat.trackr.live / text

‹ back to catalog

CZ-8 R/B

NORAD 69419 · 2026-125U

ROCKET_BODY UNKNOWN UNKNOWN

§ Identity

Operator
Country
PRC
Launch date
2026-06-05
Launch site
WSC
Launch vehicle
Mass (kg)
RCS (m²)

External: N2YO · Heavens-Above · Gunter

§ Orbital elements

Epoch: 2026-07-04T17:06:42.425856Z

Period
100.01 min
Inclination
88.9976°
Eccentricity
0.0068960
Mean motion
14.39873245 rev/d
Perigee alt
709.7 km
Apogee alt
808.1 km
Semi-major
7,137.1 km
B*
5.7197e-5
RAAN
278.3518°
Arg perigee
24.3354°
Mean anomaly
336.1077°
Rev number
424

§ Raw data

CZ-8 R/B1 69419U 26125U   26185.71299104  .00000200  00000+0  57197-4 0  99942 69419  88.9976 278.3518 0068960  24.3354 336.1077 14.39873245  4245

JSON: /api/v1/satellites/69419 · /tle

For live sub-satellite position, see the globe view (requires WebGL).

§ Visibility from observer

Set your observer location to see the next 7 days of passes ≥ 10°. The values pass through the URL so the page stays shareable.

No JS? Fill the form by hand. The geolocation button needs JavaScript.